| time (UTC) | temp F | wind direction | speed knots | gust knots | rain 1hr in | rain 24hr in | rain mn in | humidity % | barometer mb |
| 20260509145350 | 53 | 11 | 3.5 | 7.8 | 0.00 | 0.00 | 0.00 | 57 | 1006.0 |
| 20260509144847 | 54 | 273 | 3.5 | 7.8 | 0.00 | 0.00 | 0.00 | 58 | 1005.8 |
| 20260509144344 | 54 | 256 | 3.5 | 8.7 | 0.00 | 0.00 | 0.00 | 57 | 1005.8 |
| 20260509143841 | 54 | 304 | 4.3 | 7.8 | 0.00 | 0.00 | 0.00 | 58 | 1005.6 |
| 20260509143338 | 53 | 301 | 1.7 | 4.3 | 0.00 | 0.00 | 0.00 | 63 | 1005.5 |
| 20260509142834 | 53 | 116 | 2.6 | 5.2 | 0.00 | 0.00 | 0.00 | 62 | 1005.5 |
| 20260509142331 | 53 | 269 | 2.6 | 5.2 | 0.00 | 0.00 | 0.00 | 65 | 1005.6 |
| 20260509141827 | 53 | 129 | 1.7 | 6.1 | 0.00 | 0.00 | 0.00 | 66 | 1005.6 |
| 20260509141328 | 52 | 311 | 1.7 | 6.1 | 0.00 | 0.00 | 0.00 | 66 | 1005.3 |
| 20260509140820 | 52 | 318 | 1.7 | 5.2 | 0.00 | 0.00 | 0.00 | 67 | 1005.1 |
| 20260509140317 | 53 | 316 | 4.3 | 6.1 | 0.00 | 0.00 | 0.00 | 67 | 1005.2 |
| 20260509135816 | 54 | 6 | 5.2 | 7.0 | 0.00 | 0.00 | 0.00 | 65 | 1005.2 |
| 20260509135312 | 53 | 55 | 1.7 | 6.1 | 0.00 | 0.00 | 0.00 | 66 | 1005.0 |
| 20260509134810 | 53 | 319 | 5.2 | 7.8 | 0.00 | 0.00 | 0.00 | 67 | 1005.2 |
| 20260509134307 | 52 | 333 | 4.3 | 7.8 | 0.00 | 0.00 | 0.00 | 68 | 1004.9 |
| 20260509133804 | 52 | 346 | 3.5 | 6.1 | 0.00 | 0.00 | 0.00 | 68 | 1005.0 |
| 20260509133300 | 53 | 299 | 6.1 | 9.6 | 0.00 | 0.00 | 0.00 | 69 | 1004.9 |
| 20260509132759 | 53 | 321 | 4.3 | 7.8 | 0.00 | 0.00 | 0.00 | 70 | 1004.7 |
| 20260509132258 | 52 | 306 | 3.5 | 5.2 | 0.00 | 0.00 | 0.00 | 70 | 1004.6 |
| 20260509131754 | 52 | 345 | 4.3 | 6.1 | 0.00 | 0.00 | 0.00 | 70 | 1004.5 |
| 20260509131250 | 52 | 323 | 2.6 | 6.1 | 0.00 | 0.00 | 0.00 | 72 | 1004.4 |
| 20260509130747 | 53 | 302 | 6.1 | 7.8 | 0.00 | 0.00 | 0.00 | 73 | 1004.4 |
| 20260509130242 | 52 | 284 | 0.9 | 7.0 | 0.00 | 0.00 | 0.00 | 74 | 1004.2 |
| 20260509125739 | 52 | 275 | 0.9 | 6.1 | 0.00 | 0.00 | 0.00 | 73 | 1004.3 |
| 20260509125236 | 52 | 315 | 7.0 | 7.8 | 0.00 | 0.00 | 0.00 | 73 | 1004.1 |
| 20260509124732 | 52 | 316 | 2.6 | 7.0 | 0.00 | 0.00 | 0.00 | 73 | 1004.1 |
| 20260509124229 | 52 | 285 | 4.3 | 9.6 | 0.00 | 0.00 | 0.00 | 73 | 1004.1 |
| 20260509123727 | 52 | 304 | 2.6 | 6.1 | 0.00 | 0.00 | 0.00 | 75 | 1004.0 |
| 20260509123224 | 52 | 316 | 1.7 | 5.2 | 0.00 | 0.00 | 0.00 | 74 | 1003.8 |
| 20260509122720 | 53 | 337 | 1.7 | 2.6 | 0.00 | 0.00 | 0.00 | 73 | 1003.7 |
| 20260509122217 | 53 | 26 | 2.6 | 4.3 | 0.00 | 0.00 | 0.00 | 73 | 1003.6 |
| 20260509121714 | 53 | 278 | 3.5 | 6.1 | 0.00 | 0.00 | 0.00 | 72 | 1003.5 |
| 20260509121211 | 52 | 326 | 2.6 | 5.2 | 0.00 | 0.00 | 0.00 | 71 | 1003.4 |
| 20260509120709 | 52 | 272 | 0.9 | 4.3 | 0.00 | 0.00 | 0.00 | 71 | 1003.5 |
| 20260509120207 | 51 | 256 | 0.0 | 0.9 | 0.00 | 0.00 | 0.00 | 71 | 1003.3 |
| 20260509115704 | 51 | 243 | 0.9 | 0.9 | 0.00 | 0.00 | 0.00 | 71 | 1003.1 |
| 20260509115201 | 50 | 229 | 0.9 | 0.9 | 0.00 | 0.00 | 0.00 | 74 | 1003.1 |
| 20260509114700 | 51 | 228 | 0.0 | 0.0 | 0.00 | 0.00 | 0.00 | 75 | 1002.9 |
| 20260509114158 | 51 | 232 | 0.9 | 0.9 | 0.00 | 0.00 | 0.00 | 75 | 1003.0 |
| 20260509113656 | 50 | 232 | 0.9 | 0.9 | 0.00 | 0.00 | 0.00 | 73 | 1002.7 |
| 20260509113153 | 50 | 233 | 0.0 | 0.9 | 0.00 | 0.00 | 0.00 | 74 | 1002.9 |
| 20260509112650 | 51 | 232 | 0.9 | 0.9 | 0.00 | 0.00 | 0.00 | 71 | 1002.6 |
| 20260509112147 | 50 | 232 | 0.0 | 0.9 | 0.00 | 0.00 | 0.00 | 69 | 1002.6 |
| 20260509111644 | 50 | 232 | 0.0 | 0.0 | 0.00 | 0.00 | 0.00 | 68 | 1002.4 |
| 20260509111141 | 50 | 233 | 0.0 | 0.0 | 0.00 | 0.00 | 0.00 | 69 | 1002.4 |
| 20260509110638 | 51 | 232 | 0.0 | 0.9 | 0.00 | 0.00 | 0.00 | 67 | 1002.5 |
| 20260509110135 | 51 | 232 | 0.9 | 0.9 | 0.00 | 0.00 | 0.00 | 63 | 1002.6 |
| 20260509105633 | 52 | 232 | 0.0 | 0.0 | 0.00 | 0.00 | 0.00 | 60 | 1002.4 |
| 20260509105130 | 52 | 232 | 0.9 | 0.9 | 0.00 | 0.00 | 0.00 | 58 | 1002.4 |
| 20260509104627 | 53 | 298 | 0.0 | 0.9 | 0.00 | 0.00 | 0.00 | 54 | 1002.4 |
| 20260509104124 | 53 | 239 | 0.0 | 0.0 | 0.00 | 0.00 | 0.00 | 53 | 1002.4 |
| 20260509103622 | 53 | 219 | 0.9 | 0.9 | 0.00 | 0.00 | 0.00 | 51 | 1002.0 |
| 20260509103120 | 53 | 226 | 0.9 | 0.9 | 0.00 | 0.00 | 0.00 | 49 | 1002.0 |
| 20260509102617 | 53 | 241 | 0.9 | 0.9 | 0.00 | 0.00 | 0.00 | 49 | 1002.2 |
| 20260509102114 | 53 | 246 | 0.9 | 0.9 | 0.00 | 0.00 | 0.00 | 49 | 1002.4 |
| 20260509101610 | 53 | 245 | 0.0 | 0.9 | 0.00 | 0.00 | 0.00 | 49 | 1002.2 |
| 20260509101107 | 53 | 285 | 0.9 | 1.7 | 0.00 | 0.00 | 0.00 | 48 | 1002.4 |
| 20260509100604 | 54 | 297 | 0.0 | 0.9 | 0.00 | 0.00 | 0.00 | 48 | 1002.3 |
| 20260509095557 | 53 | 278 | 0.0 | 1.7 | 0.00 | 0.00 | 0.00 | 48 | 1002.3 |
| 20260509095055 | 53 | 300 | 1.7 | 4.3 | 0.00 | 0.00 | 0.00 | 47 | 1002.7 |
| 20260509094551 | 53 | 295 | 0.9 | 2.6 | 0.00 | 0.00 | 0.00 | 48 | 1002.5 |
| 20260509094049 | 53 | 272 | 0.9 | 0.9 | 0.00 | 0.00 | 0.00 | 49 | 1002.3 |
| 20260509093547 | 53 | 262 | 0.9 | 1.7 | 0.00 | 0.00 | 0.00 | 49 | 1002.3 |
| 20260509093044 | 53 | 291 | 0.9 | 0.9 | 0.00 | 0.00 | 0.00 | 49 | 1002.0 |
| 20260509092542 | 52 | 279 | 0.0 | 1.7 | 0.00 | 0.00 | 0.00 | 51 | 1002.0 |
| 20260509092040 | 52 | 259 | 0.0 | 0.9 | 0.00 | 0.00 | 0.00 | 52 | 1002.3 |
| 20260509091537 | 52 | 257 | 0.0 | 0.9 | 0.00 | 0.00 | 0.00 | 51 | 1002.6 |
| 20260509091034 | 52 | 255 | 0.0 | 0.0 | 0.00 | 0.00 | 0.00 | 51 | 1002.2 |
| 20260509090531 | 52 | 245 | 0.9 | 0.9 | 0.00 | 0.00 | 0.00 | 50 | 1002.2 |
| 20260509090029 | 52 | 270 | 0.0 | 0.9 | 0.00 | 0.00 | 0.00 | 49 | 1002.1 |
| 20260509085526 | 52 | 299 | 2.6 | 2.6 | 0.00 | 0.00 | 0.00 | 48 | 1002.2 |
| 20260509085022 | 51 | 318 | 1.7 | 6.1 | 0.00 | 0.00 | 0.00 | 49 | 1001.9 |
| 20260509084519 | 51 | 216 | 0.0 | 0.9 | 0.00 | 0.00 | 0.00 | 48 | 1001.4 |
| 20260509084016 | 51 | 216 | 0.9 | 0.9 | 0.00 | 0.00 | 0.00 | 48 | 1001.2 |
| 20260509083513 | 51 | 216 | 0.0 | 0.9 | 0.00 | 0.00 | 0.00 | 47 | 1001.3 |
| 20260509083010 | 51 | 216 | 0.0 | 0.9 | 0.00 | 0.00 | 0.00 | 48 | 1001.3 |
| 20260509082508 | 51 | 216 | 0.9 | 0.9 | 0.00 | 0.00 | 0.00 | 48 | 1001.2 |
| 20260509082004 | 51 | 216 | 0.0 | 0.9 | 0.00 | 0.00 | 0.00 | 49 | 1001.3 |
| 20260509081502 | 51 | 216 | 0.0 | 0.9 | 0.00 | 0.00 | 0.00 | 49 | 1001.3 |
| 20260509080958 | 51 | 214 | 0.9 | 0.9 | 0.00 | 0.00 | 0.00 | 49 | 1001.2 |
| 20260509080456 | 51 | 213 | 0.0 | 0.9 | 0.00 | 0.00 | 0.00 | 49 | 1001.0 |
| 20260509075954 | 51 | 213 | 0.9 | 0.9 | 0.00 | 0.00 | 0.00 | 48 | 1001.0 |
| 20260509075451 | 50 | 212 | 0.9 | 1.7 | 0.00 | 0.00 | 0.00 | 48 | 1000.8 |
| 20260509074949 | 51 | 213 | 0.9 | 0.9 | 0.00 | 0.00 | 0.00 | 48 | 1001.1 |
| 20260509074446 | 51 | 213 | 0.9 | 0.9 | 0.00 | 0.00 | 0.00 | 48 | 1001.0 |
| 20260509073942 | 51 | 213 | 0.9 | 0.9 | 0.00 | 0.00 | 0.00 | 47 | 1001.1 |
| 20260509073439 | 50 | 217 | 0.0 | 0.9 | 0.00 | 0.00 | 0.00 | 47 | 1001.2 |
| 20260509072935 | 50 | 217 | 0.9 | 0.9 | 0.00 | 0.00 | 0.00 | 49 | 1001.3 |
| 20260509072432 | 50 | 217 | 0.9 | 0.9 | 0.00 | 0.00 | 0.00 | 49 | 1001.4 |
| 20260509071929 | 50 | 216 | 0.9 | 0.9 | 0.00 | 0.00 | 0.00 | 49 | 1001.5 |
| 20260509071426 | 50 | 216 | 0.0 | 0.9 | 0.00 | 0.00 | 0.00 | 49 | 1001.4 |
| 20260509070923 | 50 | 215 | 0.9 | 0.9 | 0.00 | 0.00 | 0.00 | 46 | 1001.4 |
| 20260509070420 | 50 | 215 | 0.9 | 0.9 | 0.00 | 0.00 | 0.00 | 48 | 1001.4 |
| 20260509065915 | 50 | 219 | 0.9 | 0.9 | 0.00 | 0.00 | 0.00 | 48 | 1001.5 |
| 20260509065412 | 51 | 218 | 0.9 | 0.9 | 0.00 | 0.00 | 0.00 | 46 | 1001.4 |
| 20260509064908 | 51 | 218 | 0.0 | 0.9 | 0.00 | 0.00 | 0.00 | 45 | 1001.6 |
| 20260509064406 | 51 | 218 | 0.0 | 0.9 | 0.00 | 0.00 | 0.00 | 45 | 1001.6 |
| 20260509063903 | 51 | 226 | 0.0 | 0.9 | 0.00 | 0.00 | 0.00 | 44 | 1001.7 |
| 20260509063359 | 52 | 227 | 0.0 | 0.0 | 0.00 | 0.00 | 0.00 | 45 | 1001.7 |
| 20260509062856 | 52 | 225 | 0.9 | 0.9 | 0.00 | 0.00 | 0.00 | 45 | 1001.7 |
| 20260509062353 | 52 | 213 | 0.9 | 1.7 | 0.00 | 0.00 | 0.00 | 45 | 1001.7 |
| 20260509061851 | 52 | 250 | 0.9 | 0.9 | 0.00 | 0.00 | 0.00 | 43 | 1001.9 |
| 20260509061349 | 53 | 250 | 0.9 | 0.9 | 0.00 | 0.00 | 0.00 | 42 | 1001.9 |
| 20260509060845 | 53 | 250 | 0.9 | 0.9 | 0.00 | 0.00 | 0.00 | 40 | 1002.0 |
| 20260509060342 | 54 | 251 | 0.0 | 0.0 | 0.00 | 0.00 | 0.00 | 39 | 1002.1 |
| 20260509055837 | 54 | 252 | 0.0 | 0.9 | 0.00 | 0.00 | 0.00 | 39 | 1002.2 |
| 20260509055333 | 54 | 251 | 0.0 | 0.9 | 0.00 | 0.00 | 0.00 | 39 | 1002.0 |
| 20260509054831 | 55 | 251 | 0.0 | 0.0 | 0.00 | 0.00 | 0.00 | 38 | 1002.0 |
| 20260509054327 | 56 | 251 | 0.0 | 0.9 | 0.00 | 0.00 | 0.00 | 36 | 1002.1 |
| 20260509053826 | 56 | 252 | 0.0 | 0.0 | 0.00 | 0.00 | 0.00 | 35 | 1002.3 |
| 20260509053322 | 57 | 252 | 0.0 | 0.0 | 0.00 | 0.00 | 0.00 | 34 | 1002.2 |
| 20260509052821 | 57 | 265 | 0.0 | 0.0 | 0.00 | 0.00 | 0.00 | 33 | 1002.4 |
| 20260509052318 | 58 | 266 | 0.0 | 0.9 | 0.00 | 0.00 | 0.00 | 32 | 1002.3 |
| 20260509051815 | 58 | 265 | 0.9 | 0.9 | 0.00 | 0.00 | 0.00 | 32 | 1002.2 |
| 20260509051314 | 59 | 268 | 0.0 | 0.9 | 0.00 | 0.00 | 0.00 | 32 | 1002.3 |
| 20260509050810 | 59 | 309 | 0.9 | 1.7 | 0.00 | 0.00 | 0.00 | 31 | 1002.4 |
| 20260509050306 | 59 | 287 | 0.9 | 2.6 | 0.00 | 0.00 | 0.00 | 31 | 1002.4 |
| 20260509045804 | 59 | 313 | 1.7 | 5.2 | 0.00 | 0.00 | 0.00 | 31 | 1002.4 |
| 20260509045300 | 59 | 278 | 0.9 | 1.7 | 0.00 | 0.00 | 0.00 | 31 | 1002.3 |
| 20260509044757 | 60 | 197 | 0.9 | 2.6 | 0.00 | 0.00 | 0.00 | 30 | 1002.5 |
| 20260509044255 | 60 | 273 | 0.9 | 2.6 | 0.00 | 0.00 | 0.00 | 31 | 1002.3 |
| 20260509043751 | 60 | 273 | 2.6 | 5.2 | 0.00 | 0.00 | 0.00 | 30 | 1002.5 |
| 20260509043247 | 60 | 254 | 0.9 | 2.6 | 0.00 | 0.00 | 0.00 | 31 | 1002.6 |
| 20260509042743 | 60 | 316 | 2.6 | 2.6 | 0.00 | 0.00 | 0.00 | 31 | 1002.4 |
| 20260509042240 | 60 | 313 | 3.5 | 5.2 | 0.00 | 0.00 | 0.00 | 30 | 1002.4 |
| 20260509041737 | 61 | 197 | 0.9 | 1.7 | 0.00 | 0.00 | 0.00 | 30 | 1002.4 |
| 20260509041234 | 61 | 298 | 2.6 | 4.3 | 0.00 | 0.00 | 0.00 | 30 | 1002.4 |
| 20260509040732 | 61 | 298 | 2.6 | 5.2 | 0.00 | 0.00 | 0.00 | 30 | 1002.4 |
| 20260509040229 | 61 | 319 | 2.6 | 6.1 | 0.00 | 0.00 | 0.00 | 30 | 1002.4 |
| 20260509035725 | 62 | 304 | 2.6 | 4.3 | 0.00 | 0.00 | 0.00 | 30 | 1002.2 |
| 20260509035223 | 62 | 272 | 1.7 | 6.1 | 0.00 | 0.00 | 0.00 | 30 | 1002.3 |
| 20260509034720 | 62 | 246 | 2.6 | 4.3 | 0.00 | 0.00 | 0.00 | 32 | 1002.3 |
| 20260509034217 | 62 | 262 | 1.7 | 7.0 | 0.00 | 0.00 | 0.00 | 31 | 1002.2 |
| 20260509033714 | 62 | 323 | 1.7 | 7.0 | 0.00 | 0.00 | 0.00 | 31 | 1002.2 |
| 20260509033211 | 63 | 351 | 5.2 | 8.7 | 0.00 | 0.00 | 0.00 | 32 | 1002.3 |
| 20260509032708 | 63 | 298 | 2.6 | 7.0 | 0.00 | 0.00 | 0.00 | 32 | 1002.1 |
| 20260509032205 | 63 | 314 | 2.6 | 5.2 | 0.00 | 0.00 | 0.00 | 31 | 1002.0 |
| 20260509031703 | 63 | 338 | 2.6 | 5.2 | 0.00 | 0.00 | 0.00 | 31 | 1002.0 |
| 20260509031200 | 63 | 288 | 2.6 | 6.1 | 0.00 | 0.00 | 0.00 | 31 | 1002.0 |
| 20260509030658 | 64 | 288 | 1.7 | 4.3 | 0.00 | 0.00 | 0.00 | 31 | 1001.6 |
| 20260509030155 | 64 | 269 | 1.7 | 6.1 | 0.00 | 0.00 | 0.00 | 31 | 1001.7 |
| 20260509025651 | 64 | 258 | 0.9 | 2.6 | 0.00 | 0.00 | 0.00 | 30 | 1001.8 |
| 20260509025147 | 64 | 272 | 1.7 | 4.3 | 0.00 | 0.00 | 0.00 | 30 | 1001.7 |
| 20260509024642 | 64 | 284 | 1.7 | 2.6 | 0.00 | 0.00 | 0.00 | 30 | 1001.6 |
| 20260509024138 | 64 | 263 | 1.7 | 7.8 | 0.00 | 0.00 | 0.00 | 29 | 1001.6 |
| 20260509023637 | 64 | 237 | 2.6 | 4.3 | 0.00 | 0.00 | 0.00 | 29 | 1001.5 |
| 20260509023133 | 64 | 260 | 1.7 | 2.6 | 0.00 | 0.00 | 0.00 | 29 | 1001.4 |
| 20260509022629 | 65 | 267 | 1.7 | 2.6 | 0.00 | 0.00 | 0.00 | 28 | 1001.3 |
| 20260509022128 | 65 | 241 | 0.9 | 4.3 | 0.00 | 0.00 | 0.00 | 28 | 1001.2 |
| 20260509021624 | 65 | 256 | 0.9 | 1.7 | 0.00 | 0.00 | 0.00 | 29 | 1001.1 |
| 20260509021121 | 65 | 246 | 1.7 | 4.3 | 0.00 | 0.00 | 0.00 | 28 | 1001.1 |
| 20260509020620 | 65 | 255 | 0.9 | 1.7 | 0.00 | 0.00 | 0.00 | 28 | 1001.0 |
| 20260509020116 | 66 | 245 | 0.9 | 4.3 | 0.00 | 0.00 | 0.00 | 27 | 1001.1 |
| 20260509015615 | 66 | 278 | 1.7 | 2.6 | 0.00 | 0.00 | 0.00 | 27 | 1000.8 |
| 20260509015112 | 66 | 267 | 0.9 | 5.2 | 0.00 | 0.00 | 0.00 | 27 | 1000.8 |
| 20260509014608 | 66 | 259 | 2.6 | 2.6 | 0.00 | 0.00 | 0.00 | 27 | 1000.7 |
| 20260509014105 | 66 | 292 | 1.7 | 1.7 | 0.00 | 0.00 | 0.00 | 28 | 1000.8 |
| 20260509013602 | 66 | 283 | 0.9 | 1.7 | 0.00 | 0.00 | 0.00 | 27 | 1000.7 |
| 20260509013057 | 67 | 269 | 1.7 | 2.6 | 0.00 | 0.00 | 0.00 | 26 | 1000.8 |
| 20260509012555 | 67 | 261 | 0.9 | 2.6 | 0.00 | 0.00 | 0.00 | 26 | 1000.6 |
| 20260509012051 | 67 | 235 | 1.7 | 2.6 | 0.00 | 0.00 | 0.00 | 26 | 1000.5 |
| 20260509011549 | 68 | 284 | 2.6 | 4.3 | 0.00 | 0.00 | 0.00 | 26 | 1000.5 |
| 20260509011046 | 68 | 289 | 2.6 | 4.3 | 0.00 | 0.00 | 0.00 | 26 | 1000.6 |
| 20260509010544 | 68 | 286 | 2.6 | 6.1 | 0.00 | 0.00 | 0.00 | 26 | 1000.8 |
| 20260509010040 | 68 | 254 | 2.6 | 4.3 | 0.00 | 0.00 | 0.00 | 26 | 1000.5 |
| 20260509005538 | 69 | 276 | 2.6 | 6.1 | 0.00 | 0.00 | 0.00 | 25 | 1000.3 |
| 20260509005038 | 69 | 275 | 2.6 | 6.1 | 0.00 | 0.00 | 0.00 | 26 | 1000.5 |
| 20260509004535 | 69 | 243 | 0.0 | 2.6 | 0.00 | 0.00 | 0.00 | 26 | 1000.5 |
| 20260509004032 | 69 | 281 | 1.7 | 5.2 | 0.00 | 0.00 | 0.00 | 26 | 1000.2 |
| 20260509003531 | 70 | 266 | 2.6 | 4.3 | 0.00 | 0.00 | 0.00 | 25 | 1000.5 |
| 20260509003027 | 70 | 262 | 1.7 | 1.7 | 0.00 | 0.00 | 0.00 | 25 | 1000.4 |
| 20260509002525 | 70 | 258 | 0.9 | 4.3 | 0.00 | 0.00 | 0.00 | 26 | 1000.6 |
| 20260509002022 | 70 | 309 | 2.6 | 4.3 | 0.00 | 0.00 | 0.00 | 26 | 1000.5 |
| 20260509001519 | 71 | 259 | 3.5 | 11.3 | 0.00 | 0.00 | 0.00 | 25 | 1000.4 |
| 20260509001015 | 71 | 257 | 3.5 | 4.3 | 0.00 | 0.00 | 0.00 | 25 | 1000.4 |
| 20260509000514 | 71 | 281 | 2.6 | 5.2 | 0.00 | 0.00 | 0.00 | 26 | 1000.5 |
| 20260509000009 | 70 | 282 | 0.9 | 2.6 | 0.00 | 0.00 | 0.00 | 26 | 1000.5 |
| 20260508235508 | 70 | 292 | 1.7 | 4.3 | 0.00 | 0.00 | 0.00 | 26 | 1000.4 |
| 20260508235003 | 70 | 245 | 1.7 | 2.6 | 0.00 | 0.00 | 0.00 | 25 | 1000.4 |
| 20260508234500 | 71 | 287 | 2.6 | 4.3 | 0.00 | 0.00 | 0.00 | 25 | 1000.5 |
| 20260508233958 | 71 | 258 | 0.9 | 2.6 | 0.00 | 0.00 | 0.00 | 25 | 1000.5 |
| 20260508233457 | 71 | 289 | 0.9 | 2.6 | 0.00 | 0.00 | 0.00 | 25 | 1000.5 |
| 20260508232954 | 72 | 262 | 0.9 | 1.7 | 0.00 | 0.00 | 0.00 | 24 | 1000.6 |
| 20260508232451 | 71 | 276 | 1.7 | 2.6 | 0.00 | 0.00 | 0.00 | 24 | 1000.7 |
| 20260508231948 | 71 | 285 | 1.7 | 5.2 | 0.00 | 0.00 | 0.00 | 25 | 1000.7 |
| 20260508231445 | 70 | 292 | 2.6 | 4.3 | 0.00 | 0.00 | 0.00 | 25 | 1000.8 |
| 20260508230942 | 70 | 280 | 0.9 | 1.7 | 0.00 | 0.00 | 0.00 | 26 | 1000.9 |
| 20260508230439 | 71 | 220 | 3.5 | 7.0 | 0.00 | 0.00 | 0.00 | 24 | 1000.8 |
| 20260508225936 | 71 | 281 | 2.6 | 2.6 | 0.00 | 0.00 | 0.00 | 24 | 1000.9 |
| 20260508225433 | 70 | 278 | 1.7 | 2.6 | 0.00 | 0.00 | 0.00 | 24 | 1001.0 |
| 20260508224930 | 70 | 272 | 2.6 | 4.3 | 0.00 | 0.00 | 0.00 | 24 | 1000.9 |
| 20260508224427 | 71 | 283 | 1.7 | 4.3 | 0.00 | 0.00 | 0.00 | 24 | 1000.9 |
| 20260508223925 | 71 | 244 | 0.9 | 2.6 | 0.00 | 0.00 | 0.00 | 24 | 1000.8 |
| 20260508223423 | 72 | 296 | 2.6 | 4.3 | 0.00 | 0.00 | 0.00 | 23 | 1000.8 |
| 20260508222919 | 71 | 229 | 1.7 | 1.7 | 0.00 | 0.00 | 0.00 | 25 | 1001.0 |
| 20260508222417 | 70 | 316 | 3.5 | 5.2 | 0.00 | 0.00 | 0.00 | 24 | 1001.2 |
| 20260508221913 | 71 | 310 | 2.6 | 6.1 | 0.00 | 0.00 | 0.00 | 24 | 1001.1 |
| 20260508221409 | 71 | 299 | 1.7 | 2.6 | 0.00 | 0.00 | 0.00 | 24 | 1001.2 |
| 20260508220905 | 70 | 267 | 1.7 | 1.7 | 0.00 | 0.00 | 0.00 | 24 | 1001.1 |
| 20260508220402 | 70 | 281 | 3.5 | 5.2 | 0.00 | 0.00 | 0.00 | 24 | 1001.3 |
| 20260508215858 | 71 | 214 | 1.7 | 1.7 | 0.00 | 0.00 | 0.00 | 24 | 1001.3 |
| 20260508215355 | 70 | 278 | 1.7 | 4.3 | 0.00 | 0.00 | 0.00 | 24 | 1001.4 |
| 20260508214852 | 71 | 278 | 1.7 | 4.3 | 0.00 | 0.00 | 0.00 | 23 | 1001.3 |
| 20260508214350 | 70 | 288 | 2.6 | 5.2 | 0.00 | 0.00 | 0.00 | 24 | 1001.6 |
| 20260508213845 | 71 | 252 | 2.6 | 7.0 | 0.00 | 0.00 | 0.00 | 23 | 1001.7 |
| 20260508213343 | 70 | 258 | 3.5 | 6.1 | 0.00 | 0.00 | 0.00 | 23 | 1001.8 |
| 20260508212838 | 69 | 229 | 2.6 | 2.6 | 0.00 | 0.00 | 0.00 | 24 | 1001.8 |
| 20260508212335 | 70 | 264 | 2.6 | 7.8 | 0.00 | 0.00 | 0.00 | 23 | 1001.7 |
| 20260508211831 | 71 | 243 | 3.5 | 4.3 | 0.00 | 0.00 | 0.00 | 23 | 1001.6 |
| 20260508211327 | 71 | 248 | 4.3 | 6.1 | 0.00 | 0.00 | 0.00 | 23 | 1001.9 |
| 20260508210825 | 71 | 251 | 3.5 | 4.3 | 0.00 | 0.00 | 0.00 | 23 | 1001.9 |
| 20260508210321 | 70 | 223 | 2.6 | 6.1 | 0.00 | 0.00 | 0.00 | 24 | 1002.0 |
| 20260508205818 | 71 | 221 | 1.7 | 6.1 | 0.00 | 0.00 | 0.00 | 23 | 1002.2 |
| 20260508205314 | 70 | 293 | 7.0 | 7.8 | 0.00 | 0.00 | 0.00 | 24 | 1002.0 |
| 20260508204811 | 71 | 190 | 0.9 | 7.0 | 0.00 | 0.00 | 0.00 | 23 | 1002.2 |
| 20260508204308 | 70 | 246 | 4.3 | 7.8 | 0.00 | 0.00 | 0.00 | 23 | 1002.5 |
| 20260508203804 | 70 | 253 | 2.6 | 4.3 | 0.00 | 0.00 | 0.00 | 23 | 1002.3 |
| 20260508203300 | 69 | 222 | 1.7 | 4.3 | 0.00 | 0.00 | 0.00 | 24 | 1002.4 |
| 20260508202755 | 69 | 252 | 2.6 | 6.1 | 0.00 | 0.00 | 0.00 | 24 | 1002.5 |
| 20260508202253 | 69 | 278 | 1.7 | 5.2 | 0.00 | 0.00 | 0.00 | 24 | 1002.6 |
| 20260508201750 | 70 | 261 | 2.6 | 6.1 | 0.00 | 0.00 | 0.00 | 23 | 1002.8 |
| 20260508201247 | 70 | 266 | 5.2 | 7.8 | 0.00 | 0.00 | 0.00 | 22 | 1002.8 |
| 20260508200744 | 69 | 267 | 4.3 | 6.1 | 0.00 | 0.00 | 0.00 | 23 | 1002.9 |
| 20260508200240 | 70 | 248 | 3.5 | 7.8 | 0.00 | 0.00 | 0.00 | 23 | 1002.8 |
| 20260508195736 | 70 | 263 | 2.6 | 5.2 | 0.00 | 0.00 | 0.00 | 23 | 1002.9 |
| 20260508195233 | 70 | 255 | 3.5 | 7.8 | 0.00 | 0.00 | 0.00 | 23 | 1002.9 |
| 20260508194730 | 69 | 306 | 2.6 | 4.3 | 0.00 | 0.00 | 0.00 | 23 | 1003.1 |
| 20260508194226 | 69 | 267 | 6.1 | 7.0 | 0.00 | 0.00 | 0.00 | 23 | 1003.1 |
| 20260508193724 | 69 | 216 | 4.3 | 5.2 | 0.00 | 0.00 | 0.00 | 22 | 1003.0 |
| 20260508193220 | 69 | 232 | 4.3 | 6.1 | 0.00 | 0.00 | 0.00 | 23 | 1003.3 |
| 20260508192717 | 70 | 254 | 6.1 | 8.7 | 0.00 | 0.00 | 0.00 | 22 | 1003.1 |
| 20260508192214 | 70 | 229 | 2.6 | 5.2 | 0.00 | 0.00 | 0.00 | 23 | 1003.3 |
| 20260508191711 | 71 | 263 | 2.6 | 8.7 | 0.00 | 0.00 | 0.00 | 23 | 1003.3 |
| 20260508191208 | 71 | 222 | 1.7 | 5.2 | 0.00 | 0.00 | 0.00 | 22 | 1003.1 |
| 20260508190705 | 70 | 285 | 5.2 | 7.8 | 0.00 | 0.00 | 0.00 | 22 | 1003.7 |
| 20260508190201 | 70 | 294 | 5.2 | 7.8 | 0.00 | 0.00 | 0.00 | 22 | 1003.6 |
| 20260508185658 | 68 | 243 | 2.6 | 5.2 | 0.00 | 0.00 | 0.00 | 22 | 1003.5 |
| 20260508185155 | 69 | 309 | 2.6 | 7.8 | 0.00 | 0.00 | 0.00 | 23 | 1003.6 |
| 20260508184653 | 70 | 274 | 2.6 | 7.0 | 0.00 | 0.00 | 0.00 | 22 | 1003.6 |
| 20260508184150 | 69 | 345 | 3.5 | 5.2 | 0.00 | 0.00 | 0.00 | 24 | 1003.6 |
| 20260508183646 | 70 | 339 | 2.6 | 5.2 | 0.00 | 0.00 | 0.00 | 23 | 1003.7 |
| 20260508183142 | 69 | 293 | 3.5 | 5.2 | 0.00 | 0.00 | 0.00 | 23 | 1004.0 |
| 20260508182639 | 69 | 276 | 4.3 | 5.2 | 0.00 | 0.00 | 0.00 | 23 | 1004.2 |
| 20260508182135 | 69 | 284 | 3.5 | 8.7 | 0.00 | 0.00 | 0.00 | 22 | 1004.3 |
| 20260508181631 | 69 | 187 | 1.7 | 4.3 | 0.00 | 0.00 | 0.00 | 24 | 1004.4 |
| 20260508181128 | 68 | 274 | 2.6 | 5.2 | 0.00 | 0.00 | 0.00 | 25 | 1004.3 |
| 20260508180625 | 68 | 337 | 4.3 | 9.6 | 0.00 | 0.00 | 0.00 | 25 | 1004.4 |
| 20260508180122 | 67 | 268 | 2.6 | 4.3 | 0.00 | 0.00 | 0.00 | 24 | 1004.6 |
| 20260508175618 | 67 | 271 | 6.1 | 7.0 | 0.00 | 0.00 | 0.00 | 24 | 1004.9 |
| 20260508175115 | 67 | 279 | 3.5 | 9.6 | 0.00 | 0.00 | 0.00 | 24 | 1004.9 |
| 20260508174613 | 68 | 258 | 2.6 | 4.3 | 0.00 | 0.00 | 0.00 | 25 | 1005.0 |
| 20260508174109 | 67 | 275 | 2.6 | 6.1 | 0.00 | 0.00 | 0.00 | 25 | 1005.0 |
| 20260508173606 | 67 | 277 | 1.7 | 13.9 | 0.00 | 0.00 | 0.00 | 24 | 1005.3 |
| 20260508173102 | 66 | 216 | 0.9 | 2.6 | 0.00 | 0.00 | 0.00 | 25 | 1005.3 |
| 20260508172600 | 64 | 241 | 0.9 | 2.6 | 0.00 | 0.00 | 0.00 | 27 | 1005.3 |
| 20260508172056 | 65 | 232 | 2.6 | 6.1 | 0.00 | 0.00 | 0.00 | 26 | 1005.5 |
| 20260508171553 | 65 | 249 | 2.6 | 7.0 | 0.00 | 0.00 | 0.00 | 26 | 1005.6 |
| 20260508171049 | 65 | 269 | 1.7 | 5.2 | 0.00 | 0.00 | 0.00 | 25 | 1005.5 |
| 20260508170547 | 65 | 248 | 3.5 | 5.2 | 0.00 | 0.00 | 0.00 | 25 | 1005.5 |
| 20260508170044 | 64 | 262 | 3.5 | 4.3 | 0.00 | 0.00 | 0.00 | 26 | 1005.8 |
| 20260508165541 | 64 | 238 | 3.5 | 5.2 | 0.00 | 0.00 | 0.00 | 26 | 1005.7 |
| 20260508165038 | 65 | 241 | 1.7 | 5.2 | 0.00 | 0.00 | 0.00 | 26 | 1005.9 |
| 20260508164534 | 64 | 257 | 1.7 | 6.1 | 0.00 | 0.00 | 0.00 | 27 | 1005.8 |
| 20260508164031 | 64 | 244 | 3.5 | 7.0 | 0.00 | 0.00 | 0.00 | 27 | 1006.0 |
| 20260508163528 | 64 | 268 | 1.7 | 6.1 | 0.00 | 0.00 | 0.00 | 28 | 1005.9 |
| 20260508163025 | 63 | 203 | 5.2 | 7.0 | 0.00 | 0.00 | 0.00 | 27 | 1006.0 |
| 20260508162522 | 64 | 231 | 4.3 | 6.1 | 0.00 | 0.00 | 0.00 | 28 | 1006.1 |
| 20260508162019 | 63 | 266 | 2.6 | 4.3 | 0.00 | 0.00 | 0.00 | 29 | 1006.1 |
| 20260508161516 | 63 | 267 | 1.7 | 6.1 | 0.00 | 0.00 | 0.00 | 29 | 1006.2 |
| 20260508161013 | 63 | 250 | 2.6 | 6.1 | 0.00 | 0.00 | 0.00 | 29 | 1006.2 |
| 20260508160512 | 62 | 228 | 5.2 | 7.8 | 0.00 | 0.00 | 0.00 | 28 | 1006.3 |
| 20260508160008 | 62 | 224 | 2.6 | 2.6 | 0.00 | 0.00 | 0.00 | 29 | 1006.3 |
| 20260508155505 | 63 | 214 | 2.6 | 7.0 | 0.00 | 0.00 | 0.00 | 28 | 1006.2 |
| 20260508155002 | 63 | 247 | 0.9 | 4.3 | 0.00 | 0.00 | 0.00 | 30 | 1006.3 |
| 20260508154500 | 62 | 268 | 0.9 | 2.6 | 0.00 | 0.00 | 0.00 | 30 | 1006.4 |
| 20260508153956 | 62 | 234 | 2.6 | 5.2 | 0.00 | 0.00 | 0.00 | 30 | 1006.2 |
| 20260508153453 | 61 | 233 | 2.6 | 5.2 | 0.00 | 0.00 | 0.00 | 30 | 1006.6 |
| 20260508152949 | 61 | 260 | 3.5 | 5.2 | 0.00 | 0.00 | 0.00 | 31 | 1006.4 |
| 20260508152446 | 61 | 227 | 0.9 | 5.2 | 0.00 | 0.00 | 0.00 | 31 | 1006.5 |
| 20260508151942 | 61 | 286 | 0.9 | 2.6 | 0.00 | 0.00 | 0.00 | 32 | 1006.6 |
| 20260508151439 | 60 | 230 | 1.7 | 2.6 | 0.00 | 0.00 | 0.00 | 33 | 1006.7 |
| 20260508150935 | 59 | 239 | 1.7 | 5.2 | 0.00 | 0.00 | 0.00 | 33 | 1006.8 |
| 20260508150432 | 59 | 210 | 5.2 | 7.8 | 0.00 | 0.00 | 0.00 | 32 | 1006.9 |
| 20260508145928 | 59 | 237 | 1.7 | 2.6 | 0.00 | 0.00 | 0.00 | 33 | 1006.8 |